Year,Month,Day,Hour,Minute,Value (Times are PST for temperature in C)
2015,08,04,00,00,15.80
2015,08,04,00,01,15.80
2015,08,04,00,02,15.80
2015,08,04,00,03,15.80
2015,08,04,00,04,15.80
2015,08,04,00,05,15.80
2015,08,04,00,06,15.80
2015,08,04,00,07,15.80
2015,08,04,00,08,15.70
2015,08,04,00,09,15.70
2015,08,04,00,10,15.70
2015,08,04,00,11,15.70
2015,08,04,00,12,15.70
2015,08,04,00,13,15.70
2015,08,04,00,14,15.70
2015,08,04,00,15,15.70
2015,08,04,00,16,15.70
2015,08,04,00,17,15.70
2015,08,04,00,18,15.70
2015,08,04,00,19,15.70
2015,08,04,00,20,15.70
2015,08,04,00,21,15.70
2015,08,04,00,22,15.70
2015,08,04,00,23,15.70
2015,08,04,00,24,15.70
2015,08,04,00,25,15.70
2015,08,04,00,26,15.70
2015,08,04,00,27,15.60
2015,08,04,00,28,15.60
2015,08,04,00,29,15.60
2015,08,04,00,30,15.60
2015,08,04,00,31,15.60
2015,08,04,00,32,15.60
2015,08,04,00,33,15.60
2015,08,04,00,34,15.60
2015,08,04,00,35,15.60
2015,08,04,00,36,15.60
2015,08,04,00,37,15.50
2015,08,04,00,38,15.50
2015,08,04,00,39,15.50
2015,08,04,00,40,15.50
2015,08,04,00,41,15.50
2015,08,04,00,42,15.40
2015,08,04,00,43,15.40
2015,08,04,00,44,15.40
2015,08,04,00,45,15.40
2015,08,04,00,46,15.40
2015,08,04,00,47,15.40
2015,08,04,00,48,15.40
2015,08,04,00,49,15.30
2015,08,04,00,50,15.30
2015,08,04,00,51,15.30
2015,08,04,00,52,15.30
2015,08,04,00,53,15.30
2015,08,04,00,54,15.30
2015,08,04,00,55,15.30
2015,08,04,00,56,15.30
2015,08,04,00,57,15.20
2015,08,04,00,58,15.20
2015,08,04,00,59,15.20
2015,08,04,01,00,15.20
2015,08,04,01,01,15.20
2015,08,04,01,02,15.10
2015,08,04,01,03,15.10
2015,08,04,01,04,15.00
2015,08,04,01,05,15.00
2015,08,04,01,06,15.00
2015,08,04,01,07,15.00
2015,08,04,01,08,15.00
2015,08,04,01,09,15.00
2015,08,04,01,10,15.00
2015,08,04,01,11,15.00
2015,08,04,01,12,15.00
2015,08,04,01,13,15.00
2015,08,04,01,14,15.00
2015,08,04,01,15,15.00
2015,08,04,01,16,15.00
2015,08,04,01,17,15.00
2015,08,04,01,18,15.00
2015,08,04,01,19,15.00
2015,08,04,01,20,15.00
2015,08,04,01,21,15.00
2015,08,04,01,22,15.00
2015,08,04,01,23,15.00
2015,08,04,01,24,15.00
2015,08,04,01,25,15.00
2015,08,04,01,26,15.00
2015,08,04,01,27,14.90
2015,08,04,01,28,14.90
2015,08,04,01,29,14.80
2015,08,04,01,30,14.80
2015,08,04,01,31,14.80
2015,08,04,01,32,14.80
2015,08,04,01,33,14.70
2015,08,04,01,34,14.70
2015,08,04,01,35,14.70
2015,08,04,01,36,14.70
2015,08,04,01,37,14.70
2015,08,04,01,38,14.60
2015,08,04,01,39,14.60
2015,08,04,01,40,14.60
2015,08,04,01,41,14.60
2015,08,04,01,42,14.50
2015,08,04,01,43,14.50
2015,08,04,01,44,14.50
2015,08,04,01,45,14.50
2015,08,04,01,46,14.40
2015,08,04,01,47,14.40
2015,08,04,01,48,14.40
2015,08,04,01,49,14.40
2015,08,04,01,50,14.40
2015,08,04,01,51,14.30
2015,08,04,01,52,14.30
2015,08,04,01,53,14.30
2015,08,04,01,54,14.30
2015,08,04,01,55,14.20
2015,08,04,01,56,14.20
2015,08,04,01,57,14.20
2015,08,04,01,58,14.20
2015,08,04,01,59,14.10
2015,08,04,02,00,14.10
2015,08,04,02,01,14.10
2015,08,04,02,02,14.10
2015,08,04,02,03,14.10
2015,08,04,02,04,14.00
2015,08,04,02,05,14.00
2015,08,04,02,06,13.90
2015,08,04,02,07,13.90
2015,08,04,02,08,13.90
2015,08,04,02,09,13.90
2015,08,04,02,10,13.90
2015,08,04,02,11,13.80
2015,08,04,02,12,13.80
2015,08,04,02,13,13.80
2015,08,04,02,14,13.80
2015,08,04,02,15,13.80
2015,08,04,02,16,13.80
2015,08,04,02,17,13.80
2015,08,04,02,18,13.70
2015,08,04,02,19,13.70
2015,08,04,02,20,13.70
2015,08,04,02,21,13.70
2015,08,04,02,22,13.70
2015,08,04,02,23,13.70
2015,08,04,02,24,13.70
2015,08,04,02,25,13.60
2015,08,04,02,26,13.60
2015,08,04,02,27,13.60
2015,08,04,02,28,13.60
2015,08,04,02,29,13.60
2015,08,04,02,30,13.50
2015,08,04,02,31,13.50
2015,08,04,02,32,13.50
2015,08,04,02,33,13.40
2015,08,04,02,34,13.40
2015,08,04,02,35,13.40
2015,08,04,02,36,13.40
2015,08,04,02,37,13.40
2015,08,04,02,38,13.40
2015,08,04,02,39,13.40
2015,08,04,02,40,13.30
2015,08,04,02,41,13.30
2015,08,04,02,42,13.30
2015,08,04,02,43,13.30
2015,08,04,02,44,13.30
2015,08,04,02,45,13.30
2015,08,04,02,46,13.30
2015,08,04,02,47,13.30
2015,08,04,02,48,13.20
2015,08,04,02,49,13.20
2015,08,04,02,50,13.20
2015,08,04,02,51,13.20
2015,08,04,02,52,13.20
2015,08,04,02,53,13.20
2015,08,04,02,54,13.20
2015,08,04,02,55,13.20
2015,08,04,02,56,13.20
2015,08,04,02,57,13.20
2015,08,04,02,58,13.20
2015,08,04,02,59,13.20
2015,08,04,03,00,13.20
2015,08,04,03,01,13.20
2015,08,04,03,02,13.20
2015,08,04,03,03,13.20
2015,08,04,03,04,13.20
2015,08,04,03,05,13.20
2015,08,04,03,06,13.20
2015,08,04,03,07,13.20
2015,08,04,03,08,13.20
2015,08,04,03,09,13.20
2015,08,04,03,10,13.20
2015,08,04,03,11,13.20
2015,08,04,03,12,13.20
2015,08,04,03,13,13.20
2015,08,04,03,14,13.20
2015,08,04,03,15,13.20
2015,08,04,03,16,13.20
2015,08,04,03,17,13.20
2015,08,04,03,18,13.20
2015,08,04,03,19,13.20
2015,08,04,03,20,13.20
2015,08,04,03,21,13.20
2015,08,04,03,22,13.20
2015,08,04,03,23,13.20
2015,08,04,03,24,13.10
2015,08,04,03,25,13.10
2015,08,04,03,26,13.10
2015,08,04,03,27,13.10
2015,08,04,03,28,13.10
2015,08,04,03,29,13.00
2015,08,04,03,30,13.00
2015,08,04,03,31,13.00
2015,08,04,03,32,13.00
2015,08,04,03,33,13.00
2015,08,04,03,34,12.90
2015,08,04,03,35,12.90
2015,08,04,03,36,12.90
2015,08,04,03,37,12.90
2015,08,04,03,38,12.90
2015,08,04,03,39,12.80
2015,08,04,03,40,12.80
2015,08,04,03,41,12.80
2015,08,04,03,42,12.80
2015,08,04,03,43,12.80
2015,08,04,03,44,12.80
2015,08,04,03,45,12.80
2015,08,04,03,46,12.80
2015,08,04,03,47,12.80
2015,08,04,03,48,12.80
2015,08,04,03,49,12.80
2015,08,04,03,50,12.70
2015,08,04,03,51,12.70
2015,08,04,03,52,12.70
2015,08,04,03,53,12.70
2015,08,04,03,54,12.70
2015,08,04,03,55,12.70
2015,08,04,03,56,12.70
2015,08,04,03,57,12.70
2015,08,04,03,58,12.70
2015,08,04,03,59,12.70
2015,08,04,04,00,12.70
2015,08,04,04,01,12.70
2015,08,04,04,02,12.60
2015,08,04,04,03,12.60
2015,08,04,04,04,12.60
2015,08,04,04,05,12.60
2015,08,04,04,06,12.60
2015,08,04,04,07,12.60
2015,08,04,04,08,12.50
2015,08,04,04,09,12.50
2015,08,04,04,10,12.50
2015,08,04,04,11,12.50
2015,08,04,04,12,12.40
2015,08,04,04,13,12.40
2015,08,04,04,14,12.40
2015,08,04,04,15,12.40
2015,08,04,04,16,12.40
2015,08,04,04,17,12.40
2015,08,04,04,18,12.40
2015,08,04,04,19,12.40
2015,08,04,04,20,12.40
2015,08,04,04,21,12.40
2015,08,04,04,22,12.40
2015,08,04,04,23,12.40
2015,08,04,04,24,12.40
2015,08,04,04,25,12.40
2015,08,04,04,26,12.30
2015,08,04,04,27,12.30
2015,08,04,04,28,12.30
2015,08,04,04,29,12.30
2015,08,04,04,30,12.30
2015,08,04,04,31,12.30
2015,08,04,04,32,12.30
2015,08,04,04,33,12.30
2015,08,04,04,34,12.30
2015,08,04,04,35,12.30
2015,08,04,04,36,12.30
2015,08,04,04,37,12.30
2015,08,04,04,38,12.30
2015,08,04,04,39,12.20
2015,08,04,04,40,12.20
2015,08,04,04,41,12.20
2015,08,04,04,42,12.20
2015,08,04,04,43,12.20
2015,08,04,04,44,12.20
2015,08,04,04,45,12.20
2015,08,04,04,46,12.20
2015,08,04,04,47,12.20
2015,08,04,04,48,12.20
2015,08,04,04,49,12.20
2015,08,04,04,50,12.20
2015,08,04,04,51,12.10
2015,08,04,04,52,12.10
2015,08,04,04,53,12.10
2015,08,04,04,54,12.10
2015,08,04,04,55,12.10
2015,08,04,04,56,12.10
2015,08,04,04,57,12.10
2015,08,04,04,58,12.00
2015,08,04,04,59,12.00
2015,08,04,05,00,12.00
2015,08,04,05,01,12.00
2015,08,04,05,02,12.00
2015,08,04,05,03,12.00
2015,08,04,05,04,11.90
2015,08,04,05,05,11.90
2015,08,04,05,06,11.90
2015,08,04,05,07,11.90
2015,08,04,05,08,11.90
2015,08,04,05,09,11.90
2015,08,04,05,10,11.90
2015,08,04,05,11,11.90
2015,08,04,05,12,12.00
2015,08,04,05,13,12.00
2015,08,04,05,14,12.00
2015,08,04,05,15,12.00
2015,08,04,05,16,12.00
2015,08,04,05,17,12.00
2015,08,04,05,18,12.00
2015,08,04,05,19,12.00
2015,08,04,05,20,11.90
2015,08,04,05,21,11.90
2015,08,04,05,22,11.90
2015,08,04,05,23,11.90
2015,08,04,05,24,11.90
2015,08,04,05,25,11.90
2015,08,04,05,26,11.90
2015,08,04,05,27,11.90
2015,08,04,05,28,11.90
2015,08,04,05,29,11.90
2015,08,04,05,30,11.90
2015,08,04,05,31,11.90
2015,08,04,05,32,11.90
2015,08,04,05,33,11.90
2015,08,04,05,34,11.90
2015,08,04,05,35,11.90
2015,08,04,05,36,11.90
2015,08,04,05,37,11.90
2015,08,04,05,38,11.80
2015,08,04,05,39,11.80
2015,08,04,05,40,11.80
2015,08,04,05,41,11.80
2015,08,04,05,42,11.80
2015,08,04,05,43,11.80
2015,08,04,05,44,11.80
2015,08,04,05,45,11.80
2015,08,04,05,46,11.80
2015,08,04,05,47,11.80
2015,08,04,05,48,11.80
2015,08,04,05,49,11.80
2015,08,04,05,50,11.80
2015,08,04,05,51,11.80
2015,08,04,05,52,11.80
2015,08,04,05,53,11.80
2015,08,04,05,54,11.70
2015,08,04,05,55,11.80
2015,08,04,05,56,11.80
2015,08,04,05,57,11.70
2015,08,04,05,58,11.70
2015,08,04,05,59,11.70
2015,08,04,06,00,11.70
2015,08,04,06,01,11.70
2015,08,04,06,02,11.70
2015,08,04,06,03,11.70
2015,08,04,06,04,11.70
2015,08,04,06,05,11.70
2015,08,04,06,06,11.80
2015,08,04,06,07,11.80
2015,08,04,06,08,11.80
2015,08,04,06,09,11.80
2015,08,04,06,10,11.80
2015,08,04,06,11,11.80
2015,08,04,06,12,11.80
2015,08,04,06,13,11.80
2015,08,04,06,14,11.90
2015,08,04,06,15,11.90
2015,08,04,06,16,11.90
2015,08,04,06,17,11.90
2015,08,04,06,18,11.90
2015,08,04,06,19,11.90
2015,08,04,06,20,11.90
2015,08,04,06,21,12.00
2015,08,04,06,22,12.00
2015,08,04,06,23,12.00
2015,08,04,06,24,12.00
2015,08,04,06,25,12.00
2015,08,04,06,26,12.10
2015,08,04,06,27,12.10
2015,08,04,06,28,12.10
2015,08,04,06,29,12.10
2015,08,04,06,30,12.10
2015,08,04,06,31,12.10
2015,08,04,06,32,12.10
2015,08,04,06,33,12.10
2015,08,04,06,34,12.20
2015,08,04,06,35,12.20
2015,08,04,06,36,12.20
2015,08,04,06,37,12.20
2015,08,04,06,38,12.20
2015,08,04,06,39,12.20
2015,08,04,06,40,12.20
2015,08,04,06,41,12.30
2015,08,04,06,42,12.30
2015,08,04,06,43,12.30
2015,08,04,06,44,12.30
2015,08,04,06,45,12.30
2015,08,04,06,46,12.30
2015,08,04,06,47,12.40
2015,08,04,06,48,12.40
2015,08,04,06,49,12.40
2015,08,04,06,50,12.40
2015,08,04,06,51,12.40
2015,08,04,06,52,12.50
2015,08,04,06,53,12.50
2015,08,04,06,54,12.50
2015,08,04,06,55,12.50
2015,08,04,06,56,12.60
2015,08,04,06,57,12.60
2015,08,04,06,58,12.60
2015,08,04,06,59,12.70
2015,08,04,07,00,12.70
2015,08,04,07,01,12.70
2015,08,04,07,02,12.70
2015,08,04,07,03,12.70
2015,08,04,07,04,12.80
2015,08,04,07,05,12.80
2015,08,04,07,06,12.80
2015,08,04,07,07,12.80
2015,08,04,07,08,12.90
2015,08,04,07,09,12.90
2015,08,04,07,10,12.90
2015,08,04,07,11,12.90
2015,08,04,07,12,12.90
2015,08,04,07,13,12.90
2015,08,04,07,14,13.00
2015,08,04,07,15,13.00
2015,08,04,07,16,13.00
2015,08,04,07,17,13.10
2015,08,04,07,18,13.10
2015,08,04,07,19,13.10
2015,08,04,07,20,13.10
2015,08,04,07,21,13.10
2015,08,04,07,22,13.10
2015,08,04,07,23,13.20
2015,08,04,07,24,13.20
2015,08,04,07,25,13.20
2015,08,04,07,26,13.20
2015,08,04,07,27,13.20
2015,08,04,07,28,13.30
2015,08,04,07,29,13.30
2015,08,04,07,30,13.30
2015,08,04,07,31,13.30
2015,08,04,07,32,13.30
2015,08,04,07,33,13.30
2015,08,04,07,34,13.40
2015,08,04,07,35,13.40
2015,08,04,07,36,13.40
2015,08,04,07,37,13.40
2015,08,04,07,38,13.40
2015,08,04,07,39,13.40
2015,08,04,07,40,13.40
2015,08,04,07,41,13.40
2015,08,04,07,42,13.40
2015,08,04,07,43,13.40
2015,08,04,07,44,13.50
2015,08,04,07,45,13.50
2015,08,04,07,46,13.50
2015,08,04,07,47,13.60
2015,08,04,07,48,13.60
2015,08,04,07,49,13.60
2015,08,04,07,50,13.70
2015,08,04,07,51,13.70
2015,08,04,07,52,13.70
2015,08,04,07,53,13.80
2015,08,04,07,54,13.80
2015,08,04,07,55,13.80
2015,08,04,07,56,13.80
2015,08,04,07,57,13.80
2015,08,04,07,58,13.80
2015,08,04,07,59,13.90
2015,08,04,08,00,13.90
2015,08,04,08,01,13.90
2015,08,04,08,02,14.00
2015,08,04,08,03,14.00
2015,08,04,08,04,14.10
2015,08,04,08,05,14.10
2015,08,04,08,06,14.10
2015,08,04,08,07,14.10
2015,08,04,08,08,14.20
2015,08,04,08,09,14.30
2015,08,04,08,10,14.40
2015,08,04,08,11,14.40
2015,08,04,08,12,14.40
2015,08,04,08,13,14.40
2015,08,04,08,14,14.40
2015,08,04,08,15,14.50
2015,08,04,08,16,14.50
2015,08,04,08,17,14.60
2015,08,04,08,18,14.60
2015,08,04,08,19,14.60
2015,08,04,08,20,14.70
2015,08,04,08,21,14.70
2015,08,04,08,22,14.80
2015,08,04,08,23,14.80
2015,08,04,08,24,14.90
2015,08,04,08,25,14.90
2015,08,04,08,26,15.00
2015,08,04,08,27,15.00
2015,08,04,08,28,15.00
2015,08,04,08,29,15.00
2015,08,04,08,30,15.00
2015,08,04,08,31,15.00
2015,08,04,08,32,15.00
2015,08,04,08,33,15.00
2015,08,04,08,34,15.00
2015,08,04,08,35,15.00
2015,08,04,08,36,15.00
2015,08,04,08,37,15.10
2015,08,04,08,38,15.20
2015,08,04,08,39,15.20
2015,08,04,08,40,15.30
2015,08,04,08,41,15.30
2015,08,04,08,42,15.40
2015,08,04,08,43,15.40
2015,08,04,08,44,15.50
2015,08,04,08,45,15.50
2015,08,04,08,46,15.60
2015,08,04,08,47,15.60
2015,08,04,08,48,15.70
2015,08,04,08,49,15.70
2015,08,04,08,50,15.70
2015,08,04,08,51,15.70
2015,08,04,08,52,15.80
2015,08,04,08,53,15.80
2015,08,04,08,54,15.80
2015,08,04,08,55,15.80
2015,08,04,08,56,15.90
2015,08,04,08,57,15.90
2015,08,04,08,58,15.90
2015,08,04,08,59,16.00
2015,08,04,09,00,16.00
2015,08,04,09,01,16.10
2015,08,04,09,02,16.20
2015,08,04,09,03,16.20
2015,08,04,09,04,16.20
2015,08,04,09,05,16.30
2015,08,04,09,06,16.30
2015,08,04,09,07,16.30
2015,08,04,09,08,16.30
2015,08,04,09,09,16.40
2015,08,04,09,10,16.40
2015,08,04,09,11,16.40
2015,08,04,09,12,16.50
2015,08,04,09,13,16.60
2015,08,04,09,14,16.60
2015,08,04,09,15,16.70
2015,08,04,09,16,16.80
2015,08,04,09,17,16.80
2015,08,04,09,18,16.90
2015,08,04,09,19,17.00
2015,08,04,09,20,17.10
2015,08,04,09,21,17.20
2015,08,04,09,22,17.30
2015,08,04,09,23,17.50
2015,08,04,09,24,17.60
2015,08,04,09,25,17.70
2015,08,04,09,26,17.80
2015,08,04,09,27,17.90
2015,08,04,09,28,18.00
2015,08,04,09,29,18.00
2015,08,04,09,30,18.10
2015,08,04,09,31,18.20
2015,08,04,09,32,18.30
2015,08,04,09,33,18.30
2015,08,04,09,34,18.40
2015,08,04,09,35,18.50
2015,08,04,09,36,18.60
2015,08,04,09,37,18.70
2015,08,04,09,38,18.70
2015,08,04,09,39,18.70
2015,08,04,09,40,18.80
2015,08,04,09,41,18.80
2015,08,04,09,42,18.90
2015,08,04,09,43,19.00
2015,08,04,09,44,19.00
2015,08,04,09,45,19.00
2015,08,04,09,46,19.00
2015,08,04,09,47,19.10
2015,08,04,09,48,19.10
2015,08,04,09,49,19.10
2015,08,04,09,50,19.10
2015,08,04,09,51,19.10
2015,08,04,09,52,19.10
2015,08,04,09,53,19.10
2015,08,04,09,54,19.20
2015,08,04,09,55,19.20
2015,08,04,09,56,19.20
2015,08,04,09,57,19.20
2015,08,04,09,58,19.20
2015,08,04,09,59,19.30
2015,08,04,10,00,19.30
2015,08,04,10,01,19.30
2015,08,04,10,02,19.40
2015,08,04,10,03,19.40
2015,08,04,10,04,19.50
2015,08,04,10,05,19.50
2015,08,04,10,06,19.60
2015,08,04,10,07,19.70
2015,08,04,10,08,19.80
2015,08,04,10,09,19.80
2015,08,04,10,10,19.90
2015,08,04,10,11,19.90
2015,08,04,10,12,20.00
2015,08,04,10,13,20.00
2015,08,04,10,14,20.10
2015,08,04,10,15,20.10
2015,08,04,10,16,20.20
2015,08,04,10,17,20.30
2015,08,04,10,18,20.30
2015,08,04,10,19,20.40
2015,08,04,10,20,20.40
2015,08,04,10,21,20.40
2015,08,04,10,22,20.40
2015,08,04,10,23,20.40
2015,08,04,10,24,20.50
2015,08,04,10,25,20.50
2015,08,04,10,26,20.60
2015,08,04,10,27,20.50
2015,08,04,10,28,20.50
2015,08,04,10,29,20.50
2015,08,04,10,30,20.40
2015,08,04,10,31,20.30
2015,08,04,10,32,20.30
2015,08,04,10,33,20.30
2015,08,04,10,34,20.30
2015,08,04,10,35,20.40
2015,08,04,10,36,20.40
2015,08,04,10,37,20.50
2015,08,04,10,38,20.60
2015,08,04,10,39,20.60
2015,08,04,10,40,20.60
2015,08,04,10,41,20.50
2015,08,04,10,42,20.60
2015,08,04,10,43,20.60
2015,08,04,10,44,20.60
2015,08,04,10,45,20.60
2015,08,04,10,46,20.60
2015,08,04,10,47,20.60
2015,08,04,10,48,20.60
2015,08,04,10,49,20.70
2015,08,04,10,50,20.80
2015,08,04,10,51,20.80
2015,08,04,10,52,20.80
2015,08,04,10,53,20.80
2015,08,04,10,54,20.80
2015,08,04,10,55,20.80
2015,08,04,10,56,20.80
2015,08,04,10,57,20.90
2015,08,04,10,58,21.00
2015,08,04,10,59,21.10
2015,08,04,11,00,21.20
2015,08,04,11,01,21.30
2015,08,04,11,02,21.30
2015,08,04,11,03,21.30
2015,08,04,11,04,21.30
2015,08,04,11,05,21.40
2015,08,04,11,06,21.40
2015,08,04,11,07,21.50
2015,08,04,11,08,21.50
2015,08,04,11,09,21.60
2015,08,04,11,10,21.50
2015,08,04,11,11,21.50
2015,08,04,11,12,21.50
2015,08,04,11,13,21.40
2015,08,04,11,14,21.40
2015,08,04,11,15,21.50
2015,08,04,11,16,21.60
2015,08,04,11,17,21.70
2015,08,04,11,18,21.80
2015,08,04,11,19,21.80
2015,08,04,11,20,21.80
2015,08,04,11,21,21.80
2015,08,04,11,22,21.70
2015,08,04,11,23,21.50
2015,08,04,11,24,21.40
2015,08,04,11,25,21.40
2015,08,04,11,26,21.40
2015,08,04,11,27,21.40
2015,08,04,11,28,21.40
2015,08,04,11,29,21.50
2015,08,04,11,30,21.50
2015,08,04,11,31,21.50
2015,08,04,11,32,21.40
2015,08,04,11,33,21.40
2015,08,04,11,34,21.40
2015,08,04,11,35,21.30
2015,08,04,11,36,21.30
2015,08,04,11,37,21.30
2015,08,04,11,38,21.40
2015,08,04,11,39,21.50
2015,08,04,11,40,21.60
2015,08,04,11,41,21.80
2015,08,04,11,42,21.90
2015,08,04,11,43,22.00
2015,08,04,11,44,22.10
2015,08,04,11,45,22.10
2015,08,04,11,46,22.20
2015,08,04,11,47,22.30
2015,08,04,11,48,22.40
2015,08,04,11,49,22.50
2015,08,04,11,50,22.60
2015,08,04,11,51,22.70
2015,08,04,11,52,22.70
2015,08,04,11,53,22.60
2015,08,04,11,54,22.60
2015,08,04,11,55,22.60
2015,08,04,11,56,22.60
2015,08,04,11,57,22.50
2015,08,04,11,58,22.40
2015,08,04,11,59,22.30
2015,08,04,12,00,22.20
2015,08,04,12,01,22.10
2015,08,04,12,02,22.20
2015,08,04,12,03,22.20
2015,08,04,12,04,22.30
2015,08,04,12,05,22.30
2015,08,04,12,06,22.30
2015,08,04,12,07,22.30
2015,08,04,12,08,22.40
2015,08,04,12,09,22.50
2015,08,04,12,10,22.60
2015,08,04,12,11,22.80
2015,08,04,12,12,22.90
2015,08,04,12,13,22.90
2015,08,04,12,14,23.00
2015,08,04,12,15,23.00
2015,08,04,12,16,23.00
2015,08,04,12,17,23.10
2015,08,04,12,18,23.10
2015,08,04,12,19,23.20
2015,08,04,12,20,23.30
2015,08,04,12,21,23.40
2015,08,04,12,22,23.40
2015,08,04,12,23,23.40
2015,08,04,12,24,23.40
2015,08,04,12,25,23.30
2015,08,04,12,26,23.20
2015,08,04,12,27,23.20
2015,08,04,12,28,23.10
2015,08,04,12,29,23.00
2015,08,04,12,30,22.90
2015,08,04,12,31,22.80
2015,08,04,12,32,22.70
2015,08,04,12,33,22.70
2015,08,04,12,34,22.70
2015,08,04,12,35,22.70
2015,08,04,12,36,22.80
2015,08,04,12,37,22.90
2015,08,04,12,38,23.00
2015,08,04,12,39,23.10
2015,08,04,12,40,23.20
2015,08,04,12,41,23.30
2015,08,04,12,42,23.30
2015,08,04,12,43,23.50
2015,08,04,12,44,23.60
2015,08,04,12,45,23.70
2015,08,04,12,46,23.70
2015,08,04,12,47,23.80
2015,08,04,12,48,23.90
2015,08,04,12,49,23.90
2015,08,04,12,50,24.10
2015,08,04,12,51,24.10
2015,08,04,12,52,24.10
2015,08,04,12,53,24.00
2015,08,04,12,54,23.80
2015,08,04,12,55,23.70
2015,08,04,12,56,23.60
2015,08,04,12,57,23.50
2015,08,04,12,58,23.50
2015,08,04,12,59,23.60
2015,08,04,13,00,23.70
2015,08,04,13,01,23.80
2015,08,04,13,02,23.90
2015,08,04,13,03,23.90
2015,08,04,13,04,23.90
2015,08,04,13,05,23.90
2015,08,04,13,06,23.90
2015,08,04,13,07,23.90
2015,08,04,13,08,24.00
2015,08,04,13,09,24.00
2015,08,04,13,10,24.00
2015,08,04,13,11,24.00
2015,08,04,13,12,24.00
2015,08,04,13,13,24.00
2015,08,04,13,14,23.90
2015,08,04,13,15,23.80
2015,08,04,13,16,23.80
2015,08,04,13,17,23.80
2015,08,04,13,18,23.90
2015,08,04,13,19,24.00
2015,08,04,13,20,24.10
2015,08,04,13,21,24.10
2015,08,04,13,22,24.10
2015,08,04,13,23,24.10
2015,08,04,13,24,24.00
2015,08,04,13,25,24.00
2015,08,04,13,26,23.90
2015,08,04,13,27,23.90
2015,08,04,13,28,23.90
2015,08,04,13,29,23.80
2015,08,04,13,30,23.70
2015,08,04,13,31,23.60
2015,08,04,13,32,23.60
2015,08,04,13,33,23.60
2015,08,04,13,34,23.60
2015,08,04,13,35,23.70
2015,08,04,13,36,23.70
2015,08,04,13,37,23.80
2015,08,04,13,38,23.80
2015,08,04,13,39,23.80
2015,08,04,13,40,23.80
2015,08,04,13,41,23.80
2015,08,04,13,42,23.80
2015,08,04,13,43,23.80
2015,08,04,13,44,23.90
2015,08,04,13,45,23.90
2015,08,04,13,46,23.90
2015,08,04,13,47,23.90
2015,08,04,13,48,24.00
2015,08,04,13,49,24.00
2015,08,04,13,50,24.10
2015,08,04,13,51,24.20
2015,08,04,13,52,24.10
2015,08,04,13,53,24.10
2015,08,04,13,54,24.20
2015,08,04,13,55,24.10
2015,08,04,13,56,24.00
2015,08,04,13,57,23.90
2015,08,04,13,58,23.90
2015,08,04,13,59,23.90
2015,08,04,14,00,23.90
2015,08,04,14,01,23.80
2015,08,04,14,02,23.80
2015,08,04,14,03,23.90
2015,08,04,14,04,24.00
2015,08,04,14,05,24.10
2015,08,04,14,06,24.20
2015,08,04,14,07,24.30
2015,08,04,14,08,24.30
2015,08,04,14,09,24.30
2015,08,04,14,10,24.20
2015,08,04,14,11,24.10
2015,08,04,14,12,24.00
2015,08,04,14,13,23.90
2015,08,04,14,14,23.90
2015,08,04,14,15,23.90
2015,08,04,14,16,23.90
2015,08,04,14,17,23.90
2015,08,04,14,18,24.00
2015,08,04,14,19,24.00
2015,08,04,14,20,24.00
2015,08,04,14,21,24.10
2015,08,04,14,22,24.10
2015,08,04,14,23,24.20
2015,08,04,14,24,24.10
2015,08,04,14,25,24.20
2015,08,04,14,26,24.20
2015,08,04,14,27,24.20
2015,08,04,14,28,24.30
2015,08,04,14,29,24.30
2015,08,04,14,30,24.20
2015,08,04,14,31,24.20
2015,08,04,14,32,24.20
2015,08,04,14,33,24.20
2015,08,04,14,34,24.20
2015,08,04,14,35,24.10
2015,08,04,14,36,24.10
2015,08,04,14,37,24.00
2015,08,04,14,38,23.90
2015,08,04,14,39,23.80
2015,08,04,14,40,23.90
2015,08,04,14,41,24.00
2015,08,04,14,42,24.10
2015,08,04,14,43,24.20
2015,08,04,14,44,24.30
2015,08,04,14,45,24.30
2015,08,04,14,46,24.30
2015,08,04,14,47,24.30
2015,08,04,14,48,24.20
2015,08,04,14,49,24.20
2015,08,04,14,50,24.20
2015,08,04,14,51,24.20
2015,08,04,14,52,24.20
2015,08,04,14,53,24.10
2015,08,04,14,54,24.00
2015,08,04,14,55,23.90
2015,08,04,14,56,23.80
2015,08,04,14,57,23.90
2015,08,04,14,58,23.90
2015,08,04,14,59,23.90
2015,08,04,15,00,24.00
2015,08,04,15,01,24.00
2015,08,04,15,02,24.10
2015,08,04,15,03,24.00
2015,08,04,15,04,24.00
2015,08,04,15,05,24.00
2015,08,04,15,06,24.10
2015,08,04,15,07,24.10
2015,08,04,15,08,24.10
2015,08,04,15,09,24.00
2015,08,04,15,10,23.90
2015,08,04,15,11,23.80
2015,08,04,15,12,23.80
2015,08,04,15,13,23.70
2015,08,04,15,14,23.60
2015,08,04,15,15,23.60
2015,08,04,15,16,23.60
2015,08,04,15,17,23.60
2015,08,04,15,18,23.70
2015,08,04,15,19,23.80
2015,08,04,15,20,23.90
2015,08,04,15,21,23.80
2015,08,04,15,22,23.70
2015,08,04,15,23,23.60
2015,08,04,15,24,23.60
2015,08,04,15,25,23.70
2015,08,04,15,26,23.70
2015,08,04,15,27,23.70
2015,08,04,15,28,23.80
2015,08,04,15,29,23.80
2015,08,04,15,30,23.80
2015,08,04,15,31,23.90
2015,08,04,15,32,24.00
2015,08,04,15,33,24.10
2015,08,04,15,34,24.10
2015,08,04,15,35,24.20
2015,08,04,15,36,24.30
2015,08,04,15,37,24.30
2015,08,04,15,38,24.30
2015,08,04,15,39,24.30
2015,08,04,15,40,24.30
2015,08,04,15,41,24.40
2015,08,04,15,42,24.40
2015,08,04,15,43,24.40
2015,08,04,15,44,24.30
2015,08,04,15,45,24.30
2015,08,04,15,46,24.20
2015,08,04,15,47,24.20
2015,08,04,15,48,24.30
2015,08,04,15,49,24.30
2015,08,04,15,50,24.40
2015,08,04,15,51,24.40
2015,08,04,15,52,24.50
2015,08,04,15,53,24.60
2015,08,04,15,54,24.60
2015,08,04,15,55,24.60
2015,08,04,15,56,24.60
2015,08,04,15,57,24.60
2015,08,04,15,58,24.60
2015,08,04,15,59,24.50
2015,08,04,16,00,24.40
2015,08,04,16,01,24.30
2015,08,04,16,02,24.20
2015,08,04,16,03,24.10
2015,08,04,16,04,24.00
2015,08,04,16,05,23.90
2015,08,04,16,06,23.80
2015,08,04,16,07,23.90
2015,08,04,16,08,23.90
2015,08,04,16,09,23.80
2015,08,04,16,10,23.80
2015,08,04,16,11,23.80
2015,08,04,16,12,23.80
2015,08,04,16,13,23.80
2015,08,04,16,14,23.90
2015,08,04,16,15,24.00
2015,08,04,16,16,24.10
2015,08,04,16,17,24.20
2015,08,04,16,18,24.30
2015,08,04,16,19,24.30
2015,08,04,16,20,24.30
2015,08,04,16,21,24.30
2015,08,04,16,22,24.20
2015,08,04,16,23,24.20
2015,08,04,16,24,24.10
2015,08,04,16,25,24.00
2015,08,04,16,26,24.00
2015,08,04,16,27,23.90
2015,08,04,16,28,23.90
2015,08,04,16,29,23.90
2015,08,04,16,30,23.90
2015,08,04,16,31,23.90
2015,08,04,16,32,23.90
2015,08,04,16,33,23.80
2015,08,04,16,34,23.90
2015,08,04,16,35,23.90
2015,08,04,16,36,24.00
2015,08,04,16,37,24.20
2015,08,04,16,38,24.30
2015,08,04,16,39,24.40
2015,08,04,16,40,24.50
2015,08,04,16,41,24.60
2015,08,04,16,42,24.70
2015,08,04,16,43,24.60
2015,08,04,16,44,24.60
2015,08,04,16,45,24.60
2015,08,04,16,46,24.50
2015,08,04,16,47,24.40
2015,08,04,16,48,24.30
2015,08,04,16,49,24.10
2015,08,04,16,50,24.10
2015,08,04,16,51,24.00
2015,08,04,16,52,24.00
2015,08,04,16,53,24.00
2015,08,04,16,54,24.00
2015,08,04,16,55,24.00
2015,08,04,16,56,24.00
2015,08,04,16,57,24.10
2015,08,04,16,58,24.10
2015,08,04,16,59,24.10
2015,08,04,17,00,24.10
2015,08,04,17,01,24.10
2015,08,04,17,02,24.20
2015,08,04,17,03,24.30
2015,08,04,17,04,24.30
2015,08,04,17,05,24.30
2015,08,04,17,06,24.30
2015,08,04,17,07,24.30
2015,08,04,17,08,24.40
2015,08,04,17,09,24.50
2015,08,04,17,10,24.50
2015,08,04,17,11,24.60
2015,08,04,17,12,24.50
2015,08,04,17,13,24.50
2015,08,04,17,14,24.50
2015,08,04,17,15,24.50
2015,08,04,17,16,24.60
2015,08,04,17,17,24.60
2015,08,04,17,18,24.50
2015,08,04,17,19,24.50